Regional Weather Roundup
Issued by NWS Tiyan, Guam

Home | Current Version | Previous Version | Text Only | Print | Product List | Glossary On
Versions: 1 2 3 4 5 6 7 8 9 10 11 12 13 14 15 16 17 18 19 20 21 22 23 24 25 26
000
ASGM40 PGUM 302312
RWRGUM
WEATHER ROUNDUP FOR THE MARIANAS
NATIONAL WEATHER SERVICE TIYAN GU
900 AM CHST FRI OCT 31 2014

GUZ001>004-310000-
MARIANA ISLANDS-

CITY           SKY/WX    TMP DP  RH WIND       PRES   REMARKS
GUAM AIRPORT   MOSUNNY   84  77  79 E13G18    29.81R HX  94
ANDERSEN AFB   PTSUNNY   82  75  78 SE13      29.80S
ROTA AIRPORT   MOSUNNY   82  77  83 E15       29.81R HX  91
TINIAN AP      MOSUNNY   84  77  79 SE12      29.79S HX  94
SAIPAN AP      MOSUNNY   84  79  84 E10       29.82R HX  96

$$




USA.gov is the U.S. government's official web portal to all federal, state and local government web resources and services.